Location: Arlington
(40.6323°N, 74.1651°W)
Time: 12:43:38
(UTC+00:00)

NOAA 11 - Pass Details

Date: 24 February 2020
Orbit: 834 x 849 km, 98.4° (Epoch: 05 April)

Event Time Altitude Azimuth Distance (km) Brightness Sun altitude
Rises 23:48:25 0° 175° (S) 3,379 7.3 -13.4°
Reaches altitude 10° 23:50:48 10° 178° (S) 2,446 6.6 -13.8°
Maximum altitude 23:56:10 62° 259° (W) 941 4.7 -14.8°
Drops below altitude 10° 00:01:33 10° 340° (NNW) 2,455 6.9 -15.9°
Sets 00:03:57 0° 344° (NNW) 3,392 7.6 -16.3°
